Theta_e
353 353 353 353 353 353 352 351 351 352 352 352 353 352 352 352 352 353 352 352 351 351 351 351 351 351 352 352 349 347 348 348 351 356 357 356 355 351 350 350 349 350
354 354 353 354 354 352 352 351 351 351 351 351 352 352 351 351 352 352 352 352 351 351 351 350 351 351 351 353 351 348 346 344 348 355 356 356 355 353 352 351 351 352
354 354 354 354 354 353 353 353 351 351 351 351 351 351 351 350 352 352 352 353 351 351 351 351 351 351 352 353 352 351 347 343 346 353 356 356 357 355 354 353 353 353
355 355 354 354 354 354 353 354 353 352 352 351 351 352 351 351 351 351 351 352 352 351 351 351 351 351 351 352 352 353 350 346 345 350 354 356 357 357 356 356 355 355
355 355 354 354 355 355 354 353 353 352 352 352 351 351 351 351 351 351 351 351 352 352 351 351 350 351 351 351 352 354 353 351 350 348 351 355 356 356 357 357 357 357
356 355 354 354 354 354 354 353 353 353 353 352 351 351 351 351 351 351 351 351 352 352 352 352 351 350 351 351 352 354 356 357 355 350 350 353 355 356 356 356 357 357
356 355 354 354 355 354 355 354 353 352 352 352 352 351 351 351 351 351 351 351 352 352 352 352 352 351 351 351 352 355 358 359 358 355 352 353 355 356 356 355 356 356
356 356 355 355 355 355 355 355 354 352 352 352 352 351 351 351 351 351 351 351 351 352 351 351 351 351 351 352 351 353 357 358 359 358 357 356 355 355 355 356 355 355
357 356 356 356 356 355 355 355 354 353 352 352 352 353 352 351 351 351 351 351 351 351 350 350 351 350 351 352 351 352 354 357 358 357 357 358 357 355 355 356 356 355
357 357 357 356 356 355 356 355 354 354 354 352 352 353 353 351 351 351 351 351 351 351 350 350 350 350 350 351 351 351 353 354 356 356 357 357 357 357 357 356 356 356
357 357 357 356 356 356 355 355 355 355 354 354 353 354 354 353 352 352 352 351 351 350 350 350 349 350 350 351 351 352 352 353 355 356 355 356 357 359 358 357 355 356
357 357 357 357 356 356 356 355 355 355 355 355 354 354 355 354 353 353 352 352 351 351 350 350 350 351 350 350 352 353 352 354 356 357 356 356 356 357 359 358 356 356
357 357 356 357 356 356 356 356 355 355 355 355 355 354 355 355 355 354 353 352 352 351 351 350 350 351 351 350 352 353 353 354 356 358 358 357 356 357 358 358 357 356
357 357 356 356 356 356 356 356 356 355 355 355 355 355 355 355 355 355 354 354 353 351 352 352 351 352 352 352 352 353 354 355 356 358 359 359 358 358 358 359 358 358
357 357 356 356 357 356 355 356 355 355 355 355 355 355 355 355 355 355 355 355 353 352 352 353 353 352 352 352 352 352 354 356 356 357 358 359 359 359 359 359 359 358
356 356 357 357 356 356 356 356 355 355 356 355 355 355 355 355 355 356 356 356 355 354 354 354 354 353 352 351 352 353 354 357 357 357 357 358 359 359 359 359 359 359
356 356 356 356 356 356 356 356 356 356 356 356 355 355 355 356 356 356 356 356 356 356 355 355 354 353 351 351 351 351 353 356 358 358 358 358 359 359 359 359 359 360
357 357 357 357 356 356 355 355 356 356 356 356 356 356 356 356 356 356 356 356 356 356 356 356 355 353 352 351 351 351 351 354 357 359 359 359 359 359 359 359 359 360
357 357 356 356 356 356 355 355 356 356 356 356 356 356 356 356 356 356 356 357 356 357 357 356 356 355 352 351 352 351 351 353 355 358 358 359 359 359 360 359 360 360
356 357 357 356 356 355 356 356 356 356 356 356 356 356 356 356 356 356 357 357 357 357 357 357 357 355 354 352 352 352 352 353 354 356 357 358 359 359 359 360 360 359
357 356 357 357 356 355 357 356 356 357 356 356 356 356 356 356 356 357 357 357 357 357 358 358 357 356 354 353 352 352 353 353 354 355 356 357 358 359 359 359 359 360
357 357 357 358 357 357 357 357 357 357 356 356 356 356 357 357 356 356 357 357 357 357 357 357 357 356 354 353 353 353 353 354 354 354 356 357 358 358 359 359 359 360
356 357 357 358 358 358 358 357 357 357 357 356 357 356 357 357 357 357 357 357 357 357 357 357 357 356 355 353 353 353 354 354 354 354 355 356 357 358 359 359 359 358
357 357 357 357 358 358 358 357 357 358 357 357 357 357 357 357 358 357 357 357 357 357 358 358 358 357 356 354 353 353 353 354 354 354 355 356 356 357 358 359 358 357
356 357 357 357 358 357 357 358 357 357 357 358 357 357 358 358 358 358 358 358 358 358 357 356 358 358 356 355 354 353 353 353 354 355 356 356 357 357 357 358 357 355
357 357 357 357 358 358 357 358 358 357 358 358 357 357 357 358 358 358 359 359 358 358 358 357 357 357 357 356 355 354 354 353 354 355 356 356 357 357 358 358 357 355
Wind_Speed
31 31 30 28 28 28 27 30 31 29 29 28 28 29 29 28 25 22 21 21 20 19 18 18 17 16 14 14 15 17 17 17 15 13 12 12 13 13 13 13 12 12
32 31 31 28 28 30 30 30 31 30 31 30 29 29 29 29 26 24 22 21 21 20 19 18 18 17 15 14 14 16 17 18 17 16 15 14 14 14 14 14 14 14
33 32 32 29 28 30 29 28 30 31 30 30 30 29 29 29 27 27 25 23 21 21 20 19 18 18 17 15 14 15 17 18 18 17 17 16 15 15 15 15 15 15
34 33 32 30 28 28 27 27 29 31 30 30 31 30 29 29 28 28 27 25 24 22 21 19 19 19 19 17 15 15 16 18 19 19 19 18 17 16 16 16 16 15
35 34 33 31 27 27 28 29 29 29 30 31 31 30 29 29 28 28 27 27 26 24 23 22 20 20 20 19 18 17 16 17 18 20 20 19 18 18 17 17 16 16
35 35 35 33 30 29 30 31 30 30 30 30 30 30 30 29 29 28 28 28 26 26 25 24 23 22 21 21 19 17 15 15 17 20 21 20 19 18 18 19 18 17
34 35 36 34 31 30 31 30 31 32 31 30 30 31 30 29 29 29 29 28 26 26 26 26 25 24 23 22 21 17 13 12 15 17 19 20 20 20 20 20 20 19
34 34 35 33 29 29 30 30 31 33 33 31 30 30 30 30 29 29 29 28 26 26 27 27 27 26 25 23 22 20 16 13 13 14 16 18 20 22 21 21 21 21
33 32 33 32 30 29 29 29 29 31 33 33 31 29 30 31 30 29 29 28 27 27 27 27 27 27 26 25 24 23 21 18 17 17 16 17 19 22 22 21 21 22
32 31 31 31 30 29 28 28 27 27 30 33 31 27 28 31 31 29 29 28 28 28 27 27 27 26 27 26 26 25 24 22 21 20 19 18 18 20 20 21 22 22
32 31 30 31 30 29 29 29 27 25 27 31 30 26 26 29 30 29 29 28 28 28 28 27 27 26 26 26 26 25 25 23 22 22 21 20 20 18 17 20 22 22
32 31 31 32 31 29 28 28 27 25 25 27 28 27 25 25 28 29 30 29 29 29 28 28 27 27 27 27 25 25 25 23 22 21 22 22 22 20 17 19 21 22
32 33 33 32 31 30 28 27 27 26 25 26 26 27 25 23 25 28 30 31 30 29 29 28 28 28 28 28 27 25 25 24 22 20 21 22 23 22 20 19 21 22
34 35 36 33 31 31 30 28 27 27 26 26 26 26 26 25 25 26 28 29 30 30 29 28 28 29 29 28 28 27 25 25 23 21 20 20 22 22 21 20 21 21
38 36 36 34 31 33 34 30 28 28 28 27 28 28 27 26 26 24 25 27 29 30 29 28 28 29 30 29 29 28 27 24 23 23 22 20 20 21 19 20 21 21
41 37 35 34 33 34 35 33 29 28 28 28 29 29 27 26 26 24 23 25 27 29 29 28 29 30 32 31 30 29 27 23 22 23 24 22 21 20 20 20 21 21
40 37 35 35 35 33 33 33 30 28 27 28 29 29 27 26 26 25 25 24 24 25 27 28 30 32 33 32 31 30 27 23 21 22 23 23 22 21 21 21 20 20
37 35 34 34 34 34 34 35 32 28 27 28 29 29 28 27 26 26 26 25 23 23 25 27 30 33 33 32 31 31 29 26 22 20 20 21 21 21 21 20 20 20
35 34 34 34 35 36 36 36 33 30 29 29 29 28 27 27 27 27 26 26 25 24 25 26 27 30 32 32 31 30 30 28 26 22 20 20 20 20 20 20 20 20
36 35 34 35 37 37 35 34 33 32 30 29 27 26 27 28 28 27 26 26 26 26 26 26 26 28 31 32 31 30 29 29 29 26 23 22 22 21 21 21 21 21
36 35 34 34 36 35 34 32 32 31 30 28 26 26 27 29 29 27 26 26 27 27 26 26 28 30 31 31 31 30 29 29 29 28 25 24 24 23 23 23 23 23
35 34 33 32 32 32 31 30 30 30 31 29 26 25 25 27 27 27 26 27 29 28 26 27 28 30 33 33 32 30 29 28 30 30 28 26 25 25 25 25 25 24
34 34 33 31 30 30 30 29 29 30 31 30 27 25 24 24 26 27 27 28 28 27 27 28 28 29 32 34 32 31 30 29 30 30 29 28 28 27 26 26 26 27
33 35 34 32 31 31 30 29 29 29 29 29 28 26 25 24 24 25 26 26 26 27 29 29 26 27 31 33 32 31 31 30 31 30 28 29 30 30 29 28 28 29
34 36 35 32 31 31 30 29 29 28 28 27 27 26 25 23 23 23 24 24 25 27 29 30 26 25 28 31 32 31 31 31 31 29 27 28 30 30 29 29 31 32
35 37 36 32 29 30 29 28 29 28 26 25 25 24 23 22 22 23 23 23 24 25 27 28 27 25 27 30 31 31 31 31 30 29 27 27 28 27 25 26 29 32
Wind_Direction
207 209 210 211 213 213 214 217 218 219 220 222 224 228 229 230 232 234 235 236 237 238 238 238 239 241 247 251 248 244 246 249 248 247 249 250 252 252 254 259 263 270
208 210 211 210 212 215 217 218 220 220 222 225 226 229 231 232 233 234 235 238 238 238 239 239 238 239 242 247 249 246 245 246 245 245 247 248 250 252 254 258 261 267
209 209 210 210 212 216 216 217 220 222 224 226 228 230 233 234 234 235 235 237 239 240 241 242 241 240 241 243 246 247 245 244 242 243 246 248 250 252 254 257 260 264
208 209 210 210 212 213 212 213 218 222 223 226 229 231 232 234 234 236 236 237 238 239 242 245 243 242 243 244 245 245 245 245 244 243 246 249 251 253 255 257 259 262
208 209 209 209 209 209 212 214 217 219 222 226 229 230 232 234 235 235 236 236 237 239 242 245 246 245 245 246 246 245 244 244 244 246 247 249 252 254 255 258 260 263
206 208 210 209 209 210 213 216 218 219 221 224 227 230 231 234 235 234 236 237 237 238 240 242 244 245 245 247 247 244 242 241 243 247 249 250 253 255 256 259 261 264
204 208 211 210 209 212 214 216 218 220 222 222 225 229 231 232 234 235 236 238 237 238 239 240 242 244 244 246 246 242 238 238 242 247 249 251 253 256 258 261 262 263
204 206 209 209 207 209 212 213 217 221 222 222 224 229 231 232 234 235 237 238 237 239 241 241 242 243 243 244 245 243 238 235 236 241 244 248 251 255 257 260 262 264
202 203 205 206 205 207 210 211 215 219 221 223 223 225 230 233 234 235 238 240 240 240 242 242 242 242 241 242 244 245 243 239 239 242 244 245 250 254 255 257 260 263
199 200 201 202 204 206 208 209 211 214 218 223 223 220 226 232 233 234 238 241 241 241 243 242 241 240 240 241 244 245 246 245 245 246 246 247 250 253 255 256 259 262
198 199 200 202 204 206 207 208 208 208 214 220 220 217 221 228 231 233 235 238 240 240 242 242 241 240 239 240 242 244 247 246 246 247 248 249 252 252 253 256 260 261
197 197 200 202 203 205 205 206 205 205 209 214 216 215 216 221 227 230 233 236 238 239 240 242 242 241 241 241 241 243 246 246 244 246 248 250 253 253 251 254 260 263
195 197 200 201 202 203 203 203 204 205 207 210 213 214 214 215 220 227 232 234 236 238 239 241 242 241 242 243 242 242 244 246 243 242 244 249 253 253 251 254 260 263
196 200 202 201 201 203 203 202 203 204 206 208 210 212 214 215 217 221 226 230 233 236 237 238 239 241 241 242 243 242 242 244 244 242 241 245 250 253 252 253 257 260
199 201 202 201 200 204 206 203 202 204 207 208 211 213 214 216 218 217 219 225 230 233 234 234 236 239 240 239 240 240 240 241 242 242 242 242 246 250 250 251 255 256
202 202 201 202 202 206 208 206 204 206 207 208 212 215 215 215 216 214 215 221 226 228 230 231 233 238 240 240 240 240 239 238 238 241 243 242 243 246 248 250 253 255
202 201 202 203 204 206 207 208 207 206 207 209 211 214 214 214 215 214 216 219 221 223 226 229 234 239 241 243 243 241 239 236 235 239 241 241 242 244 247 249 251 254
199 199 201 203 204 205 207 209 208 205 206 208 210 212 211 212 214 216 218 220 219 221 224 228 234 240 242 244 244 244 241 237 235 236 237 238 238 240 244 247 249 252
196 197 199 200 203 205 207 208 206 205 206 208 210 211 211 213 216 217 218 219 219 220 224 227 233 239 243 244 244 244 243 240 237 236 237 239 238 237 240 243 246 250
196 196 197 200 203 205 205 205 205 206 208 209 210 209 210 213 216 216 217 218 219 222 225 228 232 237 242 244 244 243 243 241 239 237 238 242 242 240 240 241 244 247
196 196 197 200 202 203 202 202 204 206 207 207 207 208 210 214 216 215 216 219 221 223 226 229 233 237 241 243 243 242 241 240 240 237 238 242 244 243 243 243 246 247
194 195 197 198 198 199 200 201 202 205 206 206 206 208 211 213 215 216 217 220 223 223 225 230 234 236 240 242 242 241 238 237 238 237 237 240 242 243 244 246 248 248
193 194 196 197 196 197 199 200 202 205 206 205 205 208 210 211 213 216 218 221 223 222 224 229 233 235 238 240 240 238 234 233 235 235 235 238 242 243 245 247 248 249
193 195 196 196 196 198 200 201 202 204 206 206 207 209 212 213 214 216 219 222 223 222 225 229 232 235 238 240 239 236 233 232 232 232 233 237 242 245 246 247 249 251
194 197 197 196 197 200 201 201 203 204 205 206 207 210 213 214 215 216 219 221 222 224 228 232 232 235 239 240 238 235 233 231 230 229 231 235 240 244 246 247 251 254
196 198 199 198 198 201 201 202 204 204 203 204 206 209 212 214 215 216 219 222 223 225 229 232 232 233 237 240 239 235 233 231 228 226 229 232 236 240 242 245 250 254